Dalhart, TX

5:42 AM CDT on May 24, 2018 (GMT -0500)
Dalhart Municipal

Weather History for KDHT - October, 2012

Change the Weather History Date:

Thursday, October 18, 2012

  Actual Average Record
Temperature  
Mean Temperature 52 °F 55 °F  
Max Temperature 66 °F 70 °F 87 °F (2003)
Min Temperature 37 °F 40 °F 25 °F (1989)
Degree Days  
Heating Degree Days 13 10  
Month to date heating degree days 161 136  
Since 1 July heating degree days 187 199  
Cooling Degree Days 0 0  
Month to date cooling degree days 1 8  
Year to date cooling degree days 1643 1136  
Moisture  
Dew Point 22 °F    
Average Humidity 41    
Maximum Humidity 64    
Minimum Humidity 18    
Precipitation  
Precipitation 0.00 in 0.05 in 1.61 in (1960)
Month to date precipitation 0.02 0.86  
Year to date precipitation 6.35 15.86  
Snow  
Snow 0.00 in 0.10 in T in (1976)
Month to date snowfall 0.0 0.2  
Since 1 July snowfall 0.0 0.2  
Since 1 September snowfall 0.0 0.2  
Snow Depth 0.00 in    
Sea Level Pressure  
Sea Level Pressure 30.01 in    
Wind  
Wind Speed 7 mph (ENE)    
Max Wind Speed 16 mph    
Max Gust Speed 21 mph    
Visibility 10 miles    
Events      
T = Trace of Precipitation, MM = Missing Value Source: NWS Daily Summary

Daily Weather History Graph

Daily Weather History Graph

Search for Another Location

Airport or City:

Astronomy

Oct. 18, 2012 Rise Set
Actual Time 8:00 AM CDT 7:09 PM CDT
Civil Twilight 7:34 AM CDT 7:35 PM CDT
Nautical Twilight 7:04 AM CDT 8:05 PM CDT
Astronomical Twilight 6:34 AM CDT 8:35 PM CDT
Moon 11:37 AM CDT (10/18) 9:52 PM CDT (10/18)
Length of Visible Light 12h 01m
Length of Day
11h 09m
Waxing Crescent, 14% of the Moon is Illuminated
Oct 18
Waxing Crescent
Oct 21
First Quarter
Oct 29
Full
Nov 6
Last Quarter
Nov 13
New

Hourly Weather History & Observations

Time (CDT) Temp. Windchill Dew Point Humidity Pressure Visibility Wind Dir Wind Speed Gust Speed Precip Events Conditions
12:53 AM 45.0 °F - 21.9 °F 40% 29.90 in 10.0 mi Calm Calm - N/A   Clear
1:53 AM 42.1 °F - 23.0 °F 47% 29.93 in 10.0 mi Calm Calm - N/A   Clear
2:53 AM 43.0 °F - 25.0 °F 49% 29.94 in 10.0 mi Calm Calm - N/A   Clear
3:53 AM 39.9 °F 35.8 °F 26.1 °F 58% 29.96 in 10.0 mi NNW 5.8 mph - N/A   Clear
4:53 AM 37.9 °F 32.7 °F 27.0 °F 65% 29.96 in 10.0 mi NW 6.9 mph - N/A   Clear
5:53 AM 39.0 °F 34.8 °F 27.0 °F 62% 29.99 in 10.0 mi North 5.8 mph - N/A   Clear
6:53 AM 37.9 °F 32.1 °F 27.0 °F 65% 30.02 in 10.0 mi NNW 8.1 mph - N/A   Clear
7:53 AM 37.9 °F 33.5 °F 27.0 °F 65% 30.06 in 10.0 mi NNW 5.8 mph - N/A   Clear
8:53 AM 43.0 °F 37.2 °F 23.0 °F 45% 30.09 in 10.0 mi NNE 10.4 mph - N/A   Clear
9:53 AM 48.0 °F - 19.9 °F 33% 30.09 in 10.0 mi NE 13.8 mph - N/A   Clear
10:53 AM 51.1 °F - 19.0 °F 28% 30.10 in 10.0 mi ENE 10.4 mph - N/A   Clear
11:53 AM 54.0 °F - 19.0 °F 25% 30.09 in 10.0 mi ENE 5.8 mph - N/A   Clear
12:53 PM 57.0 °F - 18.0 °F 22% 30.07 in 10.0 mi SE 5.8 mph - N/A   Clear
1:53 PM 59.0 °F - 18.0 °F 20% 30.04 in 10.0 mi South 3.5 mph - N/A   Clear
2:53 PM 62.1 °F - 19.0 °F 19% 30.00 in 10.0 mi SSW 11.5 mph - N/A   Clear
3:53 PM 64.0 °F - 19.0 °F 18% 29.98 in 10.0 mi SW 9.2 mph 16.1 mph N/A   Clear
4:53 PM 64.9 °F - 19.9 °F 18% 29.97 in 10.0 mi South 10.4 mph - N/A   Clear
5:53 PM 64.9 °F - 19.9 °F 18% 29.96 in 10.0 mi South 9.2 mph - N/A   Clear
6:53 PM 62.1 °F - 19.9 °F 20% 29.97 in 10.0 mi South 4.6 mph - N/A   Clear
7:53 PM 57.0 °F - 21.9 °F 26% 30.00 in 10.0 mi ESE 4.6 mph - N/A   Clear
8:53 PM 48.9 °F - 23.0 °F 36% 30.04 in 10.0 mi East 6.9 mph - N/A   Clear
9:53 PM 48.0 °F - 26.1 °F 42% 30.04 in 10.0 mi East 5.8 mph - N/A   Clear
10:53 PM 46.0 °F 41.9 °F 23.0 °F 40% 30.06 in 10.0 mi NE 8.1 mph - N/A   Clear
11:53 PM 45.0 °F 40.6 °F 23.0 °F 42% 30.06 in 10.0 mi NE 8.1 mph - N/A   Clear